MSR958 HECA-ZGGG

Flight info

Callsign MSR958
Flight time N/A
Altitude 37000
Route CVO L315 HGD M872 PMA Y214 RAPMA/N0500F290 Y214 KUTNA M440 MIDGU/N0480F370 M440 TULBU N881 SETSI/N0475F390 N881 RASKI L639 BPL A791 CEA B465 CTG A599 LINSO/K0876S1190 A599 GYA GYA8
Aircraft A333/H-SDE3GHIJ2J3J5M1RVWXY/LB2D1

Departure

Time 2026-05-07 22:01
Airport Cairo International Airport (HECA)

Arrival

Time N/A
Airport Guangzhou Baiyun International Airport (ZGGG)
Time Latitude Longitude Altitude Speed Heading
2026-05-07 21:40 30.11076 31.40235 393 ft 0 kts 16°
2026-05-07 21:43 30.11075 31.40234 393 ft 1 kts 16°
2026-05-07 21:43 30.11062 31.40230 393 ft 2 kts 11°
2026-05-07 21:43 30.11047 31.40227 393 ft 2 kts 12°
2026-05-07 21:43 30.11032 31.40223 393 ft 2 kts 13°
2026-05-07 21:44 30.11017 31.40219 393 ft 2 kts 12°
2026-05-07 21:44 30.11002 31.40215 393 ft 2 kts 28°
2026-05-07 21:44 30.10993 31.40202 393 ft 2 kts 82°
2026-05-07 21:44 30.10993 31.40191 393 ft 1 kts 109°
2026-05-07 21:45 30.10994 31.40186 393 ft 0 kts 107°
2026-05-07 21:48 30.10994 31.40187 393 ft 0 kts 107°
2026-05-07 21:48 30.10992 31.40196 393 ft 2 kts 106°
2026-05-07 21:48 30.10980 31.40243 393 ft 9 kts 105°
2026-05-07 21:49 30.10954 31.40350 393 ft 16 kts 106°
2026-05-07 21:49 30.10921 31.40494 393 ft 18 kts 89°
2026-05-07 21:49 30.10984 31.40615 393 ft 17 kts 51°
2026-05-07 21:49 30.11064 31.40724 393 ft 18 kts 49°
2026-05-07 21:50 30.11154 31.40842 393 ft 19 kts 48°
2026-05-07 21:50 30.11249 31.40966 393 ft 20 kts 48°
2026-05-07 21:50 30.11351 31.41094 393 ft 21 kts 47°
2026-05-07 21:50 30.11428 31.41229 393 ft 14 kts 94°
2026-05-07 21:51 30.11414 31.41333 393 ft 10 kts 66°
2026-05-07 21:51 30.11473 31.41424 393 ft 16 kts 63°
2026-05-07 21:51 30.11538 31.41534 393 ft 17 kts 49°
2026-05-07 21:51 30.11654 31.41680 393 ft 31 kts 47°
2026-05-07 21:52 30.11802 31.41865 394 ft 29 kts 48°
2026-05-07 21:52 30.11931 31.42038 393 ft 27 kts 50°
2026-05-07 21:52 30.12048 31.42197 393 ft 25 kts 48°
2026-05-07 21:52 30.12166 31.42343 393 ft 23 kts 49°
2026-05-07 21:53 30.12182 31.42500 394 ft 20 kts 134°
2026-05-07 21:53 30.12071 31.42607 394 ft 19 kts 139°
2026-05-07 21:53 30.11967 31.42711 394 ft 19 kts 138°
2026-05-07 21:53 30.11860 31.42818 394 ft 20 kts 139°
2026-05-07 21:54 30.11750 31.42929 394 ft 20 kts 140°
2026-05-07 21:54 30.11639 31.43031 394 ft 20 kts 138°
2026-05-07 21:54 30.11530 31.43144 394 ft 20 kts 138°
2026-05-07 21:54 30.11419 31.43256 394 ft 21 kts 139°
2026-05-07 21:55 30.11304 31.43372 394 ft 21 kts 139°
2026-05-07 21:55 30.11191 31.43480 394 ft 20 kts 149°
2026-05-07 21:55 30.11097 31.43447 394 ft 13 kts 239°
2026-05-07 21:55 30.11041 31.43367 394 ft 14 kts 229°
2026-05-07 21:56 30.10963 31.43261 394 ft 19 kts 230°
2026-05-07 21:56 30.10864 31.43127 394 ft 22 kts 229°
2026-05-07 21:56 30.10762 31.42991 394 ft 22 kts 229°
2026-05-07 21:56 30.10663 31.42858 394 ft 21 kts 230°
2026-05-07 21:57 30.10567 31.42726 394 ft 20 kts 229°
2026-05-07 21:57 30.10472 31.42602 394 ft 20 kts 228°
2026-05-07 21:57 30.10379 31.42479 394 ft 19 kts 229°
2026-05-07 21:57 30.10290 31.42357 394 ft 19 kts 230°
2026-05-07 21:58 30.10199 31.42239 394 ft 19 kts 229°
2026-05-07 21:58 30.10111 31.42123 394 ft 19 kts 228°
2026-05-07 21:58 30.10021 31.42004 394 ft 19 kts 230°
2026-05-07 21:58 30.09930 31.41879 394 ft 20 kts 230°
2026-05-07 21:59 30.09840 31.41807 394 ft 11 kts 166°
2026-05-07 21:59 30.09783 31.41852 394 ft 9 kts 136°
2026-05-07 21:59 30.09753 31.41923 394 ft 10 kts 87°
2026-05-07 21:59 30.09788 31.42000 394 ft 9 kts 48°
2026-05-07 22:00 30.09792 31.42005 394 ft 0 kts 47°
2026-05-07 22:00 30.09821 31.42044 394 ft 27 kts 49°
2026-05-07 22:00 30.10090 31.42399 394 ft 85 kts 47°
2026-05-07 22:00 30.10606 31.43080 394 ft 134 kts 49°
2026-05-07 22:01 30.11303 31.44020 438 ft 168 kts 48°
2026-05-07 22:01 30.12092 31.45056 894 ft 170 kts 48°
2026-05-07 22:01 30.12872 31.46034 1474 ft 166 kts 40°
2026-05-07 22:01 30.13803 31.46790 2048 ft 166 kts 18°
2026-05-07 22:02 30.14945 31.46720 2560 ft 171 kts 339°
2026-05-07 22:02 30.15850 31.45830 3058 ft 178 kts 308°
2026-05-07 22:02 30.16252 31.44452 3522 ft 187 kts 278°
2026-05-07 22:02 30.16124 31.42955 3953 ft 192 kts 259°
2026-05-07 22:03 30.15685 31.41493 4363 ft 194 kts 246°
2026-05-07 22:03 30.14770 31.40312 4688 ft 203 kts 209°
2026-05-07 22:03 30.13416 31.39836 4993 ft 206 kts 180°
2026-05-07 22:03 30.11941 31.39721 5215 ft 218 kts 183°
2026-05-07 22:04 30.10372 31.39659 5455 ft 229 kts 173°
2026-05-07 22:04 30.08778 31.39954 5759 ft 236 kts 162°
2026-05-07 22:04 30.07191 31.40629 6092 ft 243 kts 152°
2026-05-07 22:04 30.05642 31.41543 6486 ft 249 kts 142°
2026-05-07 22:05 30.04255 31.42759 6908 ft 254 kts 135°
2026-05-07 22:05 30.02867 31.44111 7144 ft 271 kts 141°
2026-05-07 22:05 30.01246 31.45401 7389 ft 288 kts 143°
2026-05-07 22:05 29.99599 31.46764 7807 ft 297 kts 139°
2026-05-07 22:06 29.97947 31.48253 8367 ft 300 kts 139°
2026-05-07 22:06 29.96317 31.49725 8957 ft 303 kts 140°
2026-05-07 22:06 29.94631 31.51220 9522 ft 306 kts 140°
2026-05-07 22:06 29.92917 31.52716 10061 ft 309 kts 141°
2026-05-07 22:07 29.91191 31.54206 10501 ft 316 kts 141°
2026-05-07 22:07 29.89387 31.55755 10758 ft 330 kts 141°
2026-05-07 22:07 29.87505 31.57366 11005 ft 344 kts 141°
2026-05-07 22:07 29.85545 31.59039 11250 ft 358 kts 142°
2026-05-07 22:08 29.83491 31.60790 11482 ft 371 kts 142°
2026-05-07 22:08 29.81382 31.62585 11711 ft 385 kts 142°
2026-05-07 22:08 29.79204 31.64437 11937 ft 397 kts 142°
2026-05-07 22:08 29.76932 31.66366 12322 ft 405 kts 143°
2026-05-07 22:09 29.74666 31.68288 12865 ft 407 kts 143°
2026-05-07 22:09 29.72375 31.70231 13392 ft 410 kts 143°
2026-05-07 22:09 29.70097 31.72163 13898 ft 413 kts 143°
2026-05-07 22:09 29.67764 31.74138 14391 ft 416 kts 143°
2026-05-07 22:10 29.65435 31.76111 14888 ft 420 kts 143°
2026-05-07 22:10 29.63068 31.78115 15416 ft 422 kts 143°
2026-05-07 22:10 29.60712 31.80108 15940 ft 425 kts 143°
2026-05-07 22:10 29.58308 31.82140 16425 ft 429 kts 143°
2026-05-07 22:11 29.55891 31.84181 16886 ft 434 kts 143°
2026-05-07 22:11 29.53467 31.86229 17390 ft 437 kts 143°
2026-05-07 22:11 29.50994 31.88314 17950 ft 439 kts 143°
2026-05-07 22:11 29.48548 31.90377 18416 ft 443 kts 143°
2026-05-07 22:12 29.46034 31.92495 18861 ft 447 kts 143°
2026-05-07 22:12 29.43537 31.94599 19375 ft 449 kts 143°
2026-05-07 22:12 29.40991 31.96742 19871 ft 452 kts 143°
2026-05-07 22:12 29.38478 31.98856 20316 ft 455 kts 143°
2026-05-07 22:13 29.35896 32.01026 20761 ft 459 kts 143°
2026-05-07 22:13 29.33305 32.03205 21176 ft 462 kts 143°
2026-05-07 22:13 29.30705 32.05384 21583 ft 466 kts 143°
2026-05-07 22:13 29.28108 32.07565 22010 ft 468 kts 143°
2026-05-07 22:14 29.25481 32.09768 22432 ft 471 kts 143°
2026-05-07 22:14 29.22797 32.12016 22796 ft 475 kts 143°
2026-05-07 22:14 29.20126 32.14255 23177 ft 478 kts 143°
2026-05-07 22:14 29.17432 32.16508 23567 ft 481 kts 143°
2026-05-07 22:15 29.14743 32.18755 23935 ft 484 kts 143°
2026-05-07 22:15 29.12007 32.21042 24290 ft 487 kts 143°
2026-05-07 22:15 29.09269 32.23326 24613 ft 490 kts 142°
2026-05-07 22:15 29.06533 32.25609 24955 ft 493 kts 142°
2026-05-07 22:16 29.03752 32.27929 25285 ft 496 kts 142°
2026-05-07 22:16 29.00934 32.30278 25644 ft 498 kts 143°
2026-05-07 22:16 28.98126 32.32616 25982 ft 500 kts 142°
2026-05-07 22:16 28.95332 32.34943 26288 ft 503 kts 142°
2026-05-07 22:17 28.92480 32.37316 26611 ft 506 kts 142°
2026-05-07 22:17 28.89641 32.39677 26900 ft 508 kts 142°
2026-05-07 22:17 28.86766 32.42066 27187 ft 511 kts 142°
2026-05-07 22:17 28.83868 32.44472 27463 ft 513 kts 142°
2026-05-07 22:18 28.80995 32.46852 27748 ft 515 kts 142°
2026-05-07 22:18 28.75158 32.51688 28288 ft 520 kts 142°
2026-05-07 22:18 28.72225 32.54116 28561 ft 522 kts 142°
2026-05-07 22:19 28.69311 32.56526 28820 ft 523 kts 142°
2026-05-07 22:19 28.66350 32.58975 29078 ft 525 kts 142°
2026-05-07 22:19 28.63407 32.61406 29341 ft 527 kts 142°
2026-05-07 22:19 28.60439 32.63856 29558 ft 529 kts 142°
2026-05-07 22:20 28.57427 32.66341 29832 ft 529 kts 142°
2026-05-07 22:20 28.54486 32.68762 30186 ft 528 kts 142°